sat.trackr.live / text

‹ back to catalog

STARLINK-34513

NORAD 64609 · 2025-137R

PAYLOAD ACTIVE UNKNOWN

§ Identity

Operator
Country
US
Launch date
2025-06-25
Launch site
AFETR
Launch vehicle
Mass (kg)
RCS (m²)

Purposes: comms

External: N2YO · Heavens-Above · Gunter

§ Orbital elements

Epoch: 2026-09-20T03:59:33.022752Z

Period
93.85 min
Inclination
53.1572°
Eccentricity
0.0001706
Mean motion
15.34393083 rev/d
Perigee alt
461.6 km
Apogee alt
463.9 km
Semi-major
6,840.9 km
B*
8.7172e-4
RAAN
149.5369°
Arg perigee
41.0645°
Mean anomaly
319.0486°
Rev number
7,063

§ Raw data

STARLINK-345131 64609U 25137R   26263.16635443  .00029185  00000+0  87172-3 0  99962 64609  53.1572 149.5369 0001706  41.0645 319.0486 15.34393083 70637

JSON: /api/v1/satellites/64609 · /tle

For live sub-satellite position, see the globe view (requires WebGL).

§ Visibility from observer

Set your observer location to see the next 7 days of passes ≥ 10°. The values pass through the URL so the page stays shareable.

No JS? Fill the form by hand. The geolocation button needs JavaScript.